Terug naar catalogus

FENGYUN 1C DEB

ActiefSSO
NORAD 29921·DEBRIS·🇨🇳 China

Gelanceerd May 10, 1999 vanaf Taiyuan Satellite Launch Center

Loading…

Volgende Passages (komende 24 uur)

TLE

VersSource: Space-Track

Epoch: Sep 14, 2026, 23:05 UTC

1 29921U 99025HT  26257.96199145  .00000361  00000-0  23975-3 0  9993
2 29921  98.7898 261.2598 0045831  13.9011  15.1429 14.06941974  7603

Volg FENGYUN 1C DEB in realtime met AllMySat

Download on the App Store